Date String (YYYY-MM-DD hh:mm:ss) UTC,Instrument flags,absolute air pressure of the measurement (hPa),sample flow rate (lpm),inlet stack bypass flow (lpm),air temperature of the measurement (°C),ambient temperature measured by the external sensor (°C),aerosol sample conditioner tube jacket temperature (°C),OPC LED temperature (°C),internal box temperature (°C),relative humidity of the measurement (%),span deviation,mass concentration of particles derived from Lorenz-Mie calculation of OPC scattering (μg/m³),mass concentration of particles derived from Lorenz-Mie calculation of OPC scattering (μg/m³),mass concentration of particles derived from Lorenz-Mie calculation of OPC scattering (μg/m³)
DateTimeUTC,F1_M11,P_M11,Q1_M11,Q2_M11,T1_M11,T2_M11,T3_M11,T4_M11,T5_M11,U1_M11,ZSPAN_M11,X0_M11,X2_M11,X1_M11
2023-12-30 06:00:00,SystemResetWarning,0831.4,5.00,000.00,022.9,021.9,000.0,031.2,024.2,8.2,0000.0,0007.69,0001.50,0000.94
2023-12-30 06:01:00,SystemResetWarning,0831.4,5.00,000.00,022.9,021.9,000.0,031.2,024.2,8.2,0000.0,0007.71,0001.53,0000.94
2023-12-30 06:02:00,SystemResetWarning,0831.4,5.00,000.00,022.8,021.9,000.0,031.2,024.2,8.2,0000.0,0007.72,0001.54,0000.94
2023-12-30 06:03:00,SystemResetWarning,0831.3,5.00,000.00,022.8,021.9,000.0,031.2,024.2,8.2,0000.0,0007.69,0001.52,0000.94
2023-12-30 06:04:00,SystemResetWarning,0831.3,5.00,000.00,022.8,021.9,000.0,031.1,024.2,8.1,0000.0,0007.96,0001.53,0000.93
2023-12-30 06:05:00,SystemResetWarning,0831.4,5.00,000.00,022.8,021.9,000.0,031.2,024.2,8.1,0000.0,0008.02,0001.51,0000.92
2023-12-30 06:06:00,SystemResetWarning,0831.4,5.00,000.00,022.8,021.9,000.0,031.1,024.2,8.1,0000.0,0008.02,0001.47,0000.91
2023-12-30 06:07:00,SystemResetWarning,0831.4,5.00,000.00,022.8,021.9,000.0,031.1,024.2,8.1,0000.0,0007.87,0001.44,0000.91
2023-12-30 06:08:00,SystemResetWarning,0831.4,5.00,000.00,022.8,021.9,000.0,031.1,024.2,8.1,0000.0,0006.51,0001.43,0000.91
2023-12-30 06:09:00,SystemResetWarning,0831.3,5.00,000.00,022.8,021.9,000.0,031.1,024.2,8.1,0000.0,0005.53,0001.44,0000.90
2023-12-30 06:10:00,SystemResetWarning,0831.3,5.00,000.00,022.8,021.9,000.0,031.1,024.2,8.1,0000.0,0003.11,0001.38,0000.88
2023-12-30 06:11:00,SystemResetWarning,0831.3,5.00,000.00,022.8,021.9,000.0,031.1,024.2,8.1,0000.0,0002.96,0001.32,0000.87
2023-12-30 06:12:00,SystemResetWarning,0831.3,5.00,000.00,022.8,021.9,000.0,031.1,024.2,8.1,0000.0,0003.01,0001.33,0000.86
2023-12-30 06:13:00,SystemResetWarning,0831.3,5.00,000.00,022.8,021.9,000.0,031.1,024.2,8.1,0000.0,0002.95,0001.30,0000.85
2023-12-30 06:14:00,SystemResetWarning,0831.3,5.00,000.00,022.8,021.9,000.0,031.1,024.2,8.1,0000.0,0002.92,0001.28,0000.84
2023-12-30 06:15:00,SystemResetWarning,0831.3,5.00,000.00,022.8,021.9,000.0,031.1,024.2,8.1,0000.0,0002.49,0001.24,0000.83
2023-12-30 06:16:00,SystemResetWarning,0831.3,5.00,000.00,022.8,021.9,000.0,031.1,024.2,8.1,0000.0,0002.26,0001.24,0000.82
2023-12-30 06:17:00,SystemResetWarning,0831.3,5.01,000.00,022.8,021.9,000.0,031.1,024.2,8.2,0000.0,0002.03,0001.20,0000.81
2023-12-30 06:18:00,SystemResetWarning,0831.3,5.00,000.00,022.8,021.9,000.0,031.1,024.2,8.5,0000.0,0002.04,0001.21,0000.80
2023-12-30 06:19:00,SystemResetWarning,0831.3,5.00,000.00,022.8,021.9,000.0,031.1,024.1,8.6,0000.0,0002.12,0001.22,0000.80
2023-12-30 06:20:00,SystemResetWarning,0831.3,5.00,000.00,022.8,021.9,000.0,031.1,024.1,8.6,0000.0,0002.14,0001.21,0000.78
2023-12-30 06:21:00,SystemResetWarning,0831.3,5.00,000.00,022.8,021.9,000.0,031.1,024.1,8.7,0000.0,0002.10,0001.16,0000.77
2023-12-30 06:22:00,SystemResetWarning,0831.3,4.99,000.00,022.8,021.9,000.0,031.1,024.1,8.7,0000.0,0002.91,0001.13,0000.75
2023-12-30 06:23:00,SystemResetWarning,0831.3,4.99,000.00,022.8,021.9,000.0,031.1,024.1,8.8,0000.0,0002.81,0001.11,0000.74
2023-12-30 06:24:00,SystemResetWarning,0831.3,5.00,000.00,022.8,021.9,000.0,031.1,024.1,9.0,0000.0,0002.80,0001.10,0000.74
2023-12-30 06:25:00,SystemResetWarning,0831.3,5.01,000.00,022.8,021.9,000.0,031.1,024.2,9.0,0000.0,0002.95,0001.09,0000.73
2023-12-30 06:26:00,SystemResetWarning,0831.3,5.01,000.00,022.7,021.9,000.0,031.1,024.2,8.9,0000.0,0003.09,0001.07,0000.72
2023-12-30 06:27:00,SystemResetWarning,0831.3,5.01,000.00,022.7,021.9,000.0,031.1,024.1,8.9,0000.0,0003.09,0001.07,0000.72
2023-12-30 06:28:00,SystemResetWarning,0831.3,5.00,000.00,022.7,021.9,000.0,031.1,024.1,8.8,0000.0,0003.26,0001.11,0000.72
2023-12-30 06:29:00,SystemResetWarning,0831.3,4.99,000.00,022.7,021.9,000.0,031.1,024.1,8.8,0000.0,0003.32,0001.14,0000.72
2023-12-30 06:30:00,SystemResetWarning,0831.3,4.99,000.00,022.7,021.9,000.0,031.1,024.1,8.9,0000.0,0003.29,0001.13,0000.71
2023-12-30 06:31:00,SystemResetWarning,0831.3,5.00,000.00,022.7,021.9,000.0,031.1,024.1,8.8,0000.0,0003.35,0001.16,0000.72
2023-12-30 06:32:00,SystemResetWarning,0831.3,5.01,000.00,022.7,021.9,000.0,031.1,024.1,8.7,0000.0,0003.72,0001.20,0000.75
2023-12-30 06:33:00,SystemResetWarning,0831.3,5.01,000.00,022.7,021.9,000.0,031.1,024.1,8.7,0000.0,0003.20,0001.21,0000.77
2023-12-30 06:34:00,SystemResetWarning,0831.3,5.01,000.00,022.7,021.9,000.0,031.1,024.1,8.7,0000.0,0003.06,0001.21,0000.79
2023-12-30 06:35:00,SystemResetWarning,0831.3,5.00,000.00,022.7,021.9,000.0,031.0,024.1,8.7,0000.0,0003.07,0001.23,0000.83
2023-12-30 06:36:00,SystemResetWarning,0831.2,5.00,000.00,022.7,021.9,000.0,031.0,024.0,8.7,0000.0,0002.98,0001.25,0000.88
2023-12-30 06:37:00,SystemResetWarning,0831.2,5.00,000.00,022.7,021.8,000.0,031.0,024.0,8.8,0000.0,0002.91,0001.33,0000.93
2023-12-30 06:38:00,SystemResetWarning,0831.3,5.00,000.00,022.7,021.8,000.0,031.0,024.0,8.7,0000.0,0003.13,0001.44,0000.98
2023-12-30 06:39:00,SystemResetWarning,0831.2,5.01,000.00,022.7,021.8,000.0,031.0,024.1,8.7,0000.0,0003.23,0001.50,0001.02
2023-12-30 06:40:00,SystemResetWarning,0831.2,5.00,000.00,022.7,021.8,000.0,031.0,024.1,8.7,0000.0,0003.45,0001.57,0001.08
2023-12-30 06:41:00,SystemResetWarning,0831.3,5.01,000.00,022.7,021.8,000.0,031.0,024.0,8.7,0000.0,0003.89,0001.63,0001.17
2023-12-30 06:42:00,SystemResetWarning,0831.2,5.00,000.00,022.6,021.8,000.0,031.0,024.0,8.7,0000.0,0004.14,0001.70,0001.24
2023-12-30 06:43:00,SystemResetWarning,0831.2,4.99,000.00,022.6,021.8,000.0,031.0,024.0,8.8,0000.0,0006.05,0001.77,0001.30
2023-12-30 06:44:00,SystemResetWarning,0831.2,4.99,000.00,022.6,021.8,000.0,031.0,024.0,8.7,0000.0,0005.93,0001.89,0001.36
2023-12-30 06:45:00,SystemResetWarning,0831.2,5.00,000.00,022.6,021.8,000.0,031.0,024.0,8.6,0000.0,0006.29,0002.04,0001.45
2023-12-30 06:46:00,SystemResetWarning,0831.2,5.00,000.00,022.6,021.8,000.0,031.0,024.0,8.6,0000.0,0007.30,0002.22,0001.58
2023-12-30 06:47:00,SystemResetWarning,0831.2,5.01,000.00,022.6,021.8,000.0,031.0,024.0,8.6,0000.0,0007.61,0002.40,0001.71
2023-12-30 06:48:00,SystemResetWarning,0831.2,5.00,000.00,022.6,021.8,000.0,031.0,024.0,8.6,0000.0,0008.54,0002.58,0001.84
2023-12-30 06:49:00,SystemResetWarning,0831.1,4.99,000.00,022.6,021.8,000.0,031.0,024.0,8.5,0000.0,0008.74,0002.71,0001.97
2023-12-30 06:50:00,SystemResetWarning,0831.1,4.99,000.00,022.6,021.8,000.0,031.0,024.0,8.5,0000.0,0009.09,0002.94,0002.14
2023-12-30 06:51:00,SystemResetWarning,0831.2,5.00,000.00,022.6,021.8,000.0,031.0,024.0,8.5,0000.0,0009.86,0003.13,0002.29
2023-12-30 06:52:00,SystemResetWarning,0831.1,4.99,000.00,022.6,021.7,000.0,030.9,023.9,8.6,0000.0,0010.18,0003.26,0002.43
2023-12-30 06:53:00,SystemResetWarning,0831.1,5.00,000.00,022.6,021.7,000.0,030.9,023.9,8.6,0000.0,0010.56,0003.37,0002.56
2023-12-30 06:54:00,SystemResetWarning,0831.1,5.00,000.00,022.6,021.7,000.0,030.9,024.0,8.6,0000.0,0009.86,0003.43,0002.68
2023-12-30 06:55:00,SystemResetWarning,0831.1,5.00,000.00,022.6,021.7,000.0,030.9,024.0,8.6,0000.0,0010.01,0003.46,0002.79
2023-12-30 06:56:00,SystemResetWarning,0831.1,5.00,000.00,022.6,021.7,000.0,030.9,023.9,8.6,0000.0,0010.51,0003.54,0002.90
2023-12-30 06:57:00,SystemResetWarning,0831.1,5.00,000.00,022.6,021.7,000.0,030.9,024.0,8.6,0000.0,0011.20,0003.56,0002.96
2023-12-30 06:58:00,SystemResetWarning,0831.1,5.00,000.00,022.6,021.7,000.0,030.9,024.0,8.6,0000.0,0011.29,0003.59,0003.01
2023-12-30 06:59:00,SystemResetWarning,0831.1,5.00,000.00,022.6,021.7,000.0,030.9,024.0,8.6,0000.0,0010.80,0003.61,0003.06
